This is the latest recevied weather packets stored in our database for station/object OZ1IEP-5. If no packets are shown the sender has not sent any weather packets the latest 10 day(s).
| Time | Temp. | Humidity | Pressure | Rain* | Wind** | Luminosity | Snow |
|---|---|---|---|---|---|---|---|
| 1787989805 | 16.67° C | 93% | 1004.1 hPa | 0 mm | - | 70 W/m² | - |
| 1787989205 | 16.67° C | 93% | 1004 hPa | 0 mm | - | 93 W/m² | - |
| 1787988608 | 16.67° C | 93% | 1004.1 hPa | 0 mm | - | 63 W/m² | - |
| 1787988005 | 16.11° C | 93% | 1004.1 hPa | 0 mm | - | 46 W/m² | - |
| 1787987406 | 16.11° C | 93% | 1004.1 hPa | 0 mm | - | 25 W/m² | - |
| 1787986808 | 16.11° C | 93% | 1004 hPa | 0 mm | - | 98 W/m² | - |
| 1787986206 | 16.11° C | 93% | 1004 hPa | 0 mm | - | 83 W/m² | - |
| 1787985605 | 16.11° C | 93% | 1004 hPa | 0 mm | - | 144 W/m² | - |
| 1787985008 | 16.11° C | 94% | 1004 hPa | 0 mm | - | 104 W/m² | - |
| 1787984405 | 15.56° C | 93% | 1003.9 hPa | 0 mm | - | 63 W/m² | - |
| 1787983806 | 15.56° C | 94% | 1003.7 hPa | 0 mm | - | 35 W/m² | - |
| 1787983212 | 15.56° C | 94% | 1003.9 hPa | 0 mm | - | 58 W/m² | - |
| 1787982607 | 15.56° C | 94% | 1004 hPa | 0 mm | - | 18 W/m² | - |
| 1787982006 | 16.11° C | 93% | 1004 hPa | 0 mm | - | 14 W/m² | - |
| 1787981409 | 16.11° C | 94% | 1004 hPa | 0 mm | - | 26 W/m² | - |
| 1787980806 | 15.56° C | 94% | 1003.9 hPa | 0 mm | - | 62 W/m² | - |
| 1787980205 | 15.56° C | 94% | 1003.6 hPa | 0 mm | - | 28 W/m² | - |
| 1787979611 | 15.56° C | 94% | 1003.6 hPa | 0 mm | - | 23 W/m² | - |
| 1787979006 | 15.56° C | 93% | 1003.6 hPa | 0 mm | - | 18 W/m² | - |
| 1787978405 | 15.56° C | 94% | 1003.7 hPa | 0 mm | - | 11 W/m² | - |
| 1787977807 | 15.56° C | 94% | 1003.8 hPa | 0 mm | - | 5 W/m² | - |
| 1787977206 | 15.56° C | 93% | 1003.6 hPa | 0 mm | - | 0 W/m² | - |
| 1787976606 | 15.56° C | 93% | 1003.6 hPa | 0 mm | - | 0 W/m² | - |
| 1787976008 | 15.56° C | 93% | 1003.6 hPa | 0 mm | - | 0 W/m² | - |
| 1787975405 | 15.56° C | 93% | 1003.9 hPa | 0 mm | - | 0 W/m² | - |
* Rain latest hour (hover to see other rain measurements)
** Current wind speed in m/s (hover to see current wind gust speed)